QPF
0.13 0.15 0.15 0.11 0.10 0.10 0.09 0.08 0.07 0.05 0.05 0.05 0.04 0.03 0.03 0.02 0.02 0.02 0.03 0.04 0.03 0.03 0.02 0.02 0.03 0.03 0.02 0.02 0.03 0.04 0.04 0.03 0.02 0.03 0.03 0.03 0.03 0.04 0.05 0.06 0.03 0.02 0.03
0.08 0.09 0.10 0.10 0.10 0.10 0.09 0.08 0.06 0.05 0.04 0.05 0.04 0.03 0.02 0.02 0.02 0.02 0.03 0.03 0.02 0.03 0.03 0.03 0.04 0.04 0.03 0.03 0.03 0.03 0.04 0.03 0.02 0.03 0.03 0.03 0.04 0.04 0.04 0.03 0.03 0.01 0.02
0.06 0.05 0.07 0.06 0.06 0.07 0.06 0.06 0.07 0.06 0.05 0.05 0.04 0.03 0.02 0.02 0.02 0.03 0.04 0.03 0.02 0.03 0.04 0.04 0.04 0.03 0.02 0.03 0.03 0.03 0.04 0.04 0.02 0.03 0.03 0.02 0.03 0.04 0.04 0.04 0.04 0.03 0.03
0.05 0.04 0.05 0.05 0.05 0.05 0.05 0.05 0.05 0.04 0.04 0.04 0.03 0.03 0.02 0.03 0.03 0.04 0.04 0.03 0.02 0.03 0.04 0.04 0.04 0.03 0.03 0.03 0.02 0.03 0.04 0.05 0.04 0.05 0.04 0.03 0.02 0.03 0.04 0.04 0.04 0.03 0.04
0.03 0.04 0.04 0.04 0.07 0.07 0.07 0.06 0.05 0.05 0.05 0.04 0.03 0.03 0.03 0.03 0.03 0.03 0.04 0.03 0.04 0.05 0.05 0.03 0.03 0.03 0.04 0.04 0.03 0.03 0.04 0.05 0.05 0.04 0.05 0.07 0.05 0.04 0.05 0.04 0.04 0.04 0.05
0.03 0.03 0.04 0.04 0.06 0.07 0.08 0.09 0.06 0.06 0.06 0.05 0.04 0.03 0.02 0.01 0.02 0.03 0.04 0.04 0.05 0.04 0.04 0.04 0.04 0.03 0.03 0.04 0.03 0.03 0.03 0.04 0.04 0.04 0.05 0.09 0.07 0.05 0.06 0.05 0.04 0.04 0.05
0.03 0.04 0.04 0.05 0.05 0.05 0.05 0.06 0.06 0.06 0.05 0.04 0.04 0.03 0.02 0.02 0.03 0.04 0.03 0.03 0.03 0.03 0.04 0.05 0.05 0.03 0.03 0.03 0.03 0.03 0.03 0.04 0.04 0.06 0.05 0.10 0.11 0.07 0.06 0.06 0.05 0.04 0.04
0.04 0.05 0.04 0.05 0.06 0.06 0.05 0.05 0.05 0.04 0.03 0.03 0.03 0.02 0.01 0.01 0.02 0.02 0.02 0.03 0.03 0.03 0.04 0.05 0.05 0.04 0.04 0.02 0.02 0.02 0.04 0.05 0.04 0.05 0.05 0.12 0.12 0.06 0.05 0.05 0.04 0.03 0.03
0.03 0.04 0.04 0.05 0.06 0.07 0.07 0.06 0.04 0.03 0.02 0.04 0.05 0.05 0.03 0.02 0.02 0.02 0.02 0.03 0.04 0.05 0.05 0.06 0.05 0.06 0.06 0.04 0.02 0.02 0.03 0.04 0.03 0.04 0.04 0.08 0.08 0.06 0.05 0.05 0.05 0.03 0.03
0.06 0.09 0.07 0.06 0.07 0.07 0.07 0.07 0.04 0.03 0.03 0.05 0.08 0.08 0.06 0.04 0.03 0.02 0.02 0.02 0.03 0.05 0.07 0.07 0.07 0.06 0.08 0.06 0.03 0.03 0.04 0.05 0.04 0.04 0.06 0.09 0.07 0.06 0.05 0.04 0.04 0.04 0.03
0.08 0.11 0.10 0.06 0.07 0.07 0.06 0.05 0.04 0.03 0.04 0.04 0.06 0.07 0.05 0.02 0.02 0.02 0.03 0.03 0.02 0.04 0.05 0.06 0.06 0.06 0.08 0.07 0.05 0.04 0.04 0.04 0.04 0.05 0.06 0.07 0.06 0.06 0.06 0.05 0.04 0.05 0.05
0.10 0.11 0.09 0.06 0.05 0.05 0.05 0.04 0.04 0.03 0.02 0.02 0.03 0.05 0.03 0.01 0.02 0.03 0.03 0.04 0.05 0.05 0.06 0.06 0.05 0.05 0.07 0.06 0.05 0.05 0.03 0.03 0.05 0.06 0.09 0.08 0.07 0.07 0.06 0.05 0.05 0.07 0.10
0.07 0.08 0.07 0.04 0.02 0.03 0.02 0.02 0.02 0.03 0.02 0.02 0.03 0.03 0.02 0.02 0.03 0.04 0.03 0.04 0.07 0.07 0.07 0.07 0.07 0.05 0.07 0.06 0.05 0.04 0.03 0.04 0.06 0.11 0.15 0.14 0.10 0.08 0.07 0.06 0.05 0.05 0.07
0.03 0.03 0.03 0.02 0.01 0.01 0.01 0.01 0.01 0.02 0.03 0.02 0.02 0.03 0.02 0.02 0.03 0.03 0.04 0.04 0.05 0.06 0.07 0.08 0.06 0.04 0.06 0.07 0.07 0.04 0.03 0.05 0.06 0.14 0.21 0.13 0.10 0.09 0.07 0.06 0.06 0.05 0.05
0.02 0.02 0.02 0.02 0.01 0.01 0.01 0.01 0.01 0.01 0.01 0.02 0.02 0.03 0.05 0.04 0.03 0.04 0.04 0.06 0.07 0.06 0.07 0.07 0.06 0.06 0.08 0.08 0.08 0.04 0.03 0.03 0.06 0.10 0.13 0.12 0.09 0.06 0.07 0.06 0.07 0.07 0.07
0.01 0.01 0.01 0.01 0.01 0.00 0.01 0.01 0.01 0.01 0.01 0.01 0.02 0.02 0.03 0.05 0.06 0.05 0.05 0.06 0.07 0.06 0.06 0.05 0.07 0.07 0.09 0.07 0.04 0.02 0.02 0.03 0.06 0.07 0.07 0.07 0.09 0.07 0.07 0.08 0.08 0.08 0.08
0.01 0.00 0.01 0.00 0.01 0.01 0.01 0.01 0.01 0.02 0.03 0.02 0.02 0.02 0.02 0.04 0.06 0.07 0.07 0.06 0.06 0.06 0.06 0.06 0.07 0.07 0.07 0.06 0.04 0.02 0.02 0.03 0.05 0.06 0.05 0.04 0.04 0.06 0.07 0.08 0.08 0.07 0.08
0.00 0.00 0.01 0.01 0.01 0.01 0.01 0.01 0.01 0.02 0.04 0.04 0.03 0.03 0.02 0.03 0.05 0.06 0.07 0.06 0.05 0.06 0.06 0.05 0.07 0.07 0.09 0.07 0.05 0.05 0.03 0.04 0.05 0.07 0.07 0.06 0.05 0.05 0.06 0.09 0.10 0.09 0.09
0.00 0.00 0.01 0.01 0.01 0.02 0.02 0.01 0.01 0.02 0.05 0.07 0.08 0.06 0.05 0.04 0.04 0.02 0.04 0.04 0.05 0.03 0.03 0.03 0.06 0.07 0.09 0.11 0.10 0.06 0.04 0.05 0.06 0.11 0.11 0.06 0.06 0.07 0.09 0.10 0.09 0.08 0.08
0.00 0.00 0.00 0.01 0.01 0.02 0.02 0.02 0.02 0.02 0.05 0.07 0.11 0.13 0.11 0.07 0.05 0.03 0.04 0.05 0.05 0.03 0.03 0.03 0.05 0.06 0.10 0.12 0.10 0.07 0.05 0.05 0.06 0.08 0.08 0.06 0.07 0.07 0.10 0.10 0.08 0.09 0.09
0.01 0.01 0.01 0.02 0.03 0.03 0.03 0.03 0.02 0.02 0.04 0.06 0.09 0.12 0.12 0.10 0.08 0.08 0.09 0.07 0.05 0.04 0.04 0.04 0.05 0.06 0.09 0.11 0.12 0.10 0.07 0.08 0.08 0.07 0.07 0.07 0.07 0.07 0.09 0.12 0.11 0.09 0.08
0.02 0.03 0.03 0.05 0.05 0.05 0.05 0.05 0.04 0.03 0.03 0.05 0.07 0.09 0.09 0.09 0.11 0.09 0.06 0.05 0.04 0.04 0.03 0.03 0.05 0.05 0.06 0.09 0.11 0.09 0.07 0.08 0.10 0.09 0.09 0.11 0.10 0.07 0.07 0.09 0.10 0.11 0.08
0.02 0.03 0.03 0.04 0.05 0.06 0.06 0.06 0.05 0.03 0.03 0.04 0.07 0.08 0.09 0.10 0.10 0.10 0.09 0.07 0.06 0.04 0.03 0.03 0.04 0.06 0.06 0.07 0.09 0.09 0.08 0.09 0.12 0.13 0.12 0.11 0.07 0.04 0.04 0.05 0.09 0.10 0.07
0.01 0.02 0.03 0.02 0.03 0.04 0.04 0.04 0.04 0.04 0.04 0.04 0.05 0.06 0.12 0.14 0.12 0.08 0.07 0.07 0.07 0.06 0.04 0.03 0.03 0.04 0.05 0.05 0.06 0.07 0.06 0.06 0.08 0.10 0.11 0.10 0.07 0.05 0.05 0.05 0.06 0.07 0.07
0.01 0.01 0.01 0.01 0.02 0.03 0.03 0.03 0.04 0.03 0.03 0.03 0.04 0.05 0.07 0.07 0.08 0.06 0.05 0.06 0.06 0.06 0.04 0.04 0.05 0.06 0.06 0.05 0.05 0.07 0.08 0.07 0.07 0.07 0.10 0.11 0.11 0.10 0.09 0.08 0.08 0.07 0.06
0.01 0.00 0.00 0.01 0.01 0.02 0.02 0.03 0.02 0.02 0.03 0.04 0.04 0.04 0.05 0.06 0.08 0.07 0.05 0.04 0.04 0.04 0.05 0.06 0.07 0.07 0.07 0.05 0.04 0.05 0.05 0.07 0.07 0.08 0.10 0.12 0.13 0.13 0.11 0.10 0.09 0.07 0.05
MSLP
1012.94 1012.39 1011.98 1011.79 1011.80 1011.97 1012.21 1012.45 1012.63 1012.72 1012.74 1012.74 1012.76 1012.87 1013.08 1013.39 1013.75 1014.12 1014.44 1014.68 1014.84 1014.93 1014.97 1015.03 1015.10 1015.23 1015.38 1015.54 1015.68 1015.78 1015.83 1015.85 1015.85 1015.88 1015.94 1016.07 1016.24 1016.45 1016.66 1016.85 1016.99 1017.09 1017.15
1012.95 1012.48 1012.16 1012.04 1012.09 1012.28 1012.52 1012.74 1012.89 1012.96 1012.96 1012.96 1013.01 1013.14 1013.39 1013.73 1014.11 1014.49 1014.81 1015.04 1015.18 1015.24 1015.26 1015.29 1015.34 1015.44 1015.57 1015.70 1015.83 1015.91 1015.97 1015.99 1016.02 1016.06 1016.15 1016.29 1016.47 1016.67 1016.86 1017.03 1017.15 1017.23 1017.28
1012.88 1012.51 1012.28 1012.23 1012.34 1012.56 1012.81 1013.02 1013.17 1013.23 1013.24 1013.25 1013.32 1013.48 1013.74 1014.07 1014.45 1014.80 1015.09 1015.29 1015.40 1015.44 1015.45 1015.46 1015.50 1015.57 1015.68 1015.80 1015.91 1015.99 1016.05 1016.10 1016.15 1016.22 1016.34 1016.49 1016.68 1016.87 1017.05 1017.20 1017.31 1017.38 1017.42
1012.76 1012.50 1012.37 1012.40 1012.57 1012.82 1013.09 1013.31 1013.46 1013.54 1013.57 1013.60 1013.69 1013.85 1014.10 1014.41 1014.74 1015.04 1015.27 1015.43 1015.50 1015.53 1015.53 1015.54 1015.59 1015.66 1015.76 1015.87 1015.97 1016.05 1016.12 1016.18 1016.25 1016.36 1016.50 1016.67 1016.86 1017.05 1017.22 1017.35 1017.44 1017.51 1017.56
1012.66 1012.50 1012.46 1012.57 1012.79 1013.08 1013.36 1013.60 1013.76 1013.86 1013.91 1013.97 1014.07 1014.23 1014.45 1014.71 1014.97 1015.20 1015.37 1015.47 1015.53 1015.55 1015.57 1015.60 1015.67 1015.76 1015.86 1015.96 1016.05 1016.12 1016.19 1016.26 1016.35 1016.47 1016.63 1016.81 1017.00 1017.18 1017.32 1017.44 1017.53 1017.60 1017.67
1012.61 1012.55 1012.61 1012.79 1013.05 1013.35 1013.64 1013.87 1014.04 1014.15 1014.23 1014.31 1014.42 1014.57 1014.76 1014.96 1015.15 1015.31 1015.42 1015.48 1015.52 1015.56 1015.61 1015.69 1015.79 1015.90 1016.02 1016.11 1016.19 1016.24 1016.29 1016.36 1016.45 1016.58 1016.74 1016.91 1017.08 1017.24 1017.36 1017.45 1017.53 1017.62 1017.71
1012.65 1012.69 1012.83 1013.05 1013.34 1013.63 1013.90 1014.11 1014.27 1014.38 1014.48 1014.58 1014.71 1014.86 1015.02 1015.18 1015.31 1015.40 1015.46 1015.50 1015.55 1015.61 1015.70 1015.83 1015.98 1016.12 1016.25 1016.34 1016.39 1016.41 1016.44 1016.47 1016.55 1016.66 1016.80 1016.95 1017.10 1017.23 1017.32 1017.39 1017.46 1017.55 1017.67
1012.79 1012.91 1013.11 1013.37 1013.65 1013.91 1014.13 1014.30 1014.42 1014.53 1014.64 1014.77 1014.92 1015.08 1015.24 1015.37 1015.46 1015.51 1015.54 1015.57 1015.62 1015.72 1015.86 1016.04 1016.23 1016.40 1016.53 1016.60 1016.62 1016.61 1016.59 1016.58 1016.62 1016.70 1016.82 1016.95 1017.06 1017.15 1017.21 1017.26 1017.31 1017.39 1017.53
1012.98 1013.18 1013.43 1013.71 1013.96 1014.16 1014.31 1014.42 1014.50 1014.58 1014.70 1014.86 1015.04 1015.23 1015.40 1015.54 1015.62 1015.65 1015.66 1015.69 1015.76 1015.88 1016.06 1016.28 1016.49 1016.68 1016.80 1016.85 1016.84 1016.77 1016.70 1016.66 1016.65 1016.70 1016.78 1016.88 1016.97 1017.03 1017.06 1017.08 1017.11 1017.19 1017.33
1013.18 1013.45 1013.75 1014.02 1014.23 1014.37 1014.44 1014.47 1014.50 1014.56 1014.68 1014.87 1015.10 1015.33 1015.54 1015.69 1015.77 1015.81 1015.81 1015.84 1015.91 1016.05 1016.24 1016.48 1016.70 1016.89 1017.00 1017.02 1016.96 1016.86 1016.74 1016.65 1016.61 1016.63 1016.69 1016.76 1016.83 1016.87 1016.89 1016.89 1016.90 1016.96 1017.09
1013.32 1013.66 1013.99 1014.26 1014.43 1014.50 1014.49 1014.45 1014.43 1014.47 1014.61 1014.82 1015.10 1015.38 1015.63 1015.81 1015.91 1015.95 1015.95 1015.97 1016.04 1016.17 1016.36 1016.58 1016.80 1016.97 1017.06 1017.05 1016.96 1016.82 1016.67 1016.55 1016.48 1016.48 1016.52 1016.59 1016.65 1016.68 1016.69 1016.69 1016.69 1016.73 1016.84
1013.34 1013.74 1014.10 1014.36 1014.51 1014.52 1014.46 1014.37 1014.31 1014.34 1014.48 1014.73 1015.05 1015.37 1015.66 1015.87 1016.00 1016.04 1016.04 1016.04 1016.09 1016.20 1016.36 1016.56 1016.75 1016.89 1016.95 1016.92 1016.81 1016.65 1016.48 1016.34 1016.26 1016.24 1016.28 1016.34 1016.41 1016.45 1016.47 1016.47 1016.47 1016.51 1016.59
1013.21 1013.65 1014.04 1014.31 1014.44 1014.43 1014.33 1014.21 1014.14 1014.17 1014.33 1014.60 1014.94 1015.30 1015.62 1015.85 1015.99 1016.04 1016.03 1016.02 1016.04 1016.12 1016.25 1016.41 1016.57 1016.68 1016.72 1016.67 1016.55 1016.38 1016.20 1016.05 1015.96 1015.93 1015.96 1016.03 1016.10 1016.16 1016.20 1016.21 1016.23 1016.26 1016.33
1012.91 1013.38 1013.79 1014.07 1014.20 1014.20 1014.11 1014.00 1013.93 1013.97 1014.14 1014.42 1014.78 1015.15 1015.48 1015.72 1015.87 1015.92 1015.91 1015.89 1015.89 1015.94 1016.04 1016.17 1016.29 1016.38 1016.40 1016.34 1016.22 1016.05 1015.87 1015.71 1015.60 1015.56 1015.57 1015.62 1015.70 1015.77 1015.82 1015.87 1015.90 1015.94 1016.01
1012.46 1012.94 1013.36 1013.66 1013.82 1013.85 1013.79 1013.72 1013.69 1013.75 1013.93 1014.21 1014.55 1014.91 1015.22 1015.46 1015.61 1015.67 1015.68 1015.66 1015.67 1015.71 1015.78 1015.89 1015.99 1016.06 1016.08 1016.02 1015.90 1015.73 1015.55 1015.37 1015.24 1015.15 1015.12 1015.14 1015.19 1015.25 1015.32 1015.39 1015.46 1015.53 1015.61
1011.91 1012.38 1012.79 1013.11 1013.31 1013.39 1013.41 1013.40 1013.42 1013.51 1013.69 1013.95 1014.26 1014.58 1014.86 1015.09 1015.23 1015.31 1015.34 1015.36 1015.39 1015.44 1015.53 1015.63 1015.73 1015.80 1015.81 1015.76 1015.64 1015.47 1015.28 1015.07 1014.89 1014.74 1014.64 1014.59 1014.59 1014.62 1014.68 1014.76 1014.86 1014.97 1015.08
1011.31 1011.74 1012.14 1012.47 1012.72 1012.88 1012.98 1013.06 1013.15 1013.28 1013.46 1013.69 1013.94 1014.19 1014.43 1014.62 1014.76 1014.86 1014.93 1015.00 1015.08 1015.18 1015.30 1015.42 1015.53 1015.61 1015.63 1015.58 1015.47 1015.30 1015.09 1014.84 1014.59 1014.36 1014.17 1014.02 1013.93 1013.90 1013.93 1014.01 1014.13 1014.27 1014.43
1010.70 1011.08 1011.45 1011.80 1012.10 1012.35 1012.56 1012.74 1012.91 1013.08 1013.25 1013.44 1013.62 1013.79 1013.95 1014.10 1014.23 1014.35 1014.48 1014.62 1014.77 1014.93 1015.10 1015.25 1015.38 1015.47 1015.50 1015.47 1015.37 1015.20 1014.96 1014.68 1014.36 1014.04 1013.74 1013.47 1013.28 1013.16 1013.13 1013.19 1013.32 1013.49 1013.69
1010.11 1010.43 1010.78 1011.14 1011.49 1011.84 1012.17 1012.46 1012.72 1012.93 1013.11 1013.23 1013.33 1013.41 1013.49 1013.57 1013.68 1013.82 1014.00 1014.21 1014.43 1014.66 1014.88 1015.07 1015.22 1015.33 1015.38 1015.36 1015.27 1015.11 1014.88 1014.57 1014.20 1013.79 1013.39 1013.01 1012.70 1012.48 1012.37 1012.38 1012.49 1012.68 1012.91
1009.55 1009.81 1010.13 1010.51 1010.93 1011.37 1011.82 1012.23 1012.59 1012.85 1013.02 1013.09 1013.11 1013.08 1013.06 1013.08 1013.15 1013.29 1013.51 1013.77 1014.05 1014.34 1014.60 1014.82 1014.99 1015.11 1015.17 1015.18 1015.12 1014.98 1014.77 1014.46 1014.08 1013.62 1013.14 1012.66 1012.25 1011.93 1011.73 1011.67 1011.74 1011.92 1012.15
1008.98 1009.21 1009.51 1009.90 1010.39 1010.93 1011.50 1012.04 1012.48 1012.80 1012.97 1013.01 1012.94 1012.81 1012.70 1012.63 1012.65 1012.78 1013.00 1013.29 1013.61 1013.92 1014.20 1014.43 1014.61 1014.73 1014.81 1014.84 1014.82 1014.74 1014.58 1014.32 1013.96 1013.50 1012.99 1012.45 1011.95 1011.54 1011.25 1011.11 1011.12 1011.25 1011.47
1008.39 1008.59 1008.89 1009.31 1009.85 1010.49 1011.17 1011.82 1012.36 1012.74 1012.93 1012.94 1012.80 1012.59 1012.38 1012.23 1012.18 1012.27 1012.47 1012.76 1013.08 1013.39 1013.66 1013.88 1014.04 1014.15 1014.24 1014.30 1014.33 1014.33 1014.25 1014.08 1013.79 1013.39 1012.89 1012.34 1011.80 1011.32 1010.95 1010.72 1010.65 1010.72 1010.88
1007.73 1007.93 1008.23 1008.67 1009.27 1009.98 1010.76 1011.51 1012.15 1012.60 1012.82 1012.82 1012.64 1012.37 1012.08 1011.85 1011.74 1011.77 1011.94 1012.19 1012.47 1012.75 1012.98 1013.16 1013.28 1013.37 1013.46 1013.55 1013.64 1013.72 1013.75 1013.69 1013.52 1013.22 1012.79 1012.28 1011.73 1011.21 1010.78 1010.47 1010.31 1010.29 1010.38
1007.00 1007.22 1007.52 1007.98 1008.61 1009.38 1010.24 1011.07 1011.79 1012.31 1012.58 1012.59 1012.41 1012.10 1011.76 1011.48 1011.32 1011.29 1011.40 1011.59 1011.82 1012.04 1012.21 1012.33 1012.40 1012.45 1012.51 1012.62 1012.76 1012.92 1013.06 1013.13 1013.10 1012.92 1012.59 1012.15 1011.64 1011.12 1010.64 1010.27 1010.03 1009.92 1009.93
1006.23 1006.46 1006.76 1007.23 1007.87 1008.67 1009.57 1010.47 1011.25 1011.84 1012.16 1012.22 1012.06 1011.76 1011.41 1011.10 1010.90 1010.83 1010.88 1011.02 1011.19 1011.33 1011.43 1011.46 1011.46 1011.46 1011.49 1011.58 1011.75 1011.97 1012.21 1012.39 1012.49 1012.43 1012.23 1011.88 1011.43 1010.93 1010.45 1010.04 1009.73 1009.55 1009.49
1005.46 1005.70 1006.00 1006.45 1007.08 1007.88 1008.79 1009.72 1010.55 1011.20 1011.59 1011.71 1011.61 1011.35 1011.02 1010.73 1010.51 1010.41 1010.43 1010.51 1010.61 1010.68 1010.69 1010.64 1010.56 1010.49 1010.46 1010.52 1010.69 1010.93 1011.21 1011.48 1011.68 1011.74 1011.64 1011.39 1011.02 1010.58 1010.12 1009.70 1009.36 1009.13 1009.01
Thickness
5798 5803 5802 5801 5800 5799 5798 5797 5796 5795 5794 5792 5791 5790 5790 5789 5789 5788 5787 5786 5785 5784 5782 5781 5780 5779 5778 5778 5777 5776 5775 5774 5772 5771 5770 5768 5767 5766 5765 5765 5764 5763 5763
5804 5803 5802 5801 5800 5799 5798 5797 5795 5794 5793 5792 5791 5790 5789 5789 5788 5787 5786 5785 5784 5783 5782 5781 5779 5778 5778 5777 5777 5776 5775 5773 5772 5770 5769 5768 5767 5766 5765 5765 5764 5763 5762
5805 5804 5802 5801 5800 5799 5797 5796 5795 5794 5793 5792 5791 5790 5789 5788 5787 5786 5786 5785 5783 5782 5781 5780 5779 5778 5777 5777 5776 5775 5774 5773 5771 5769 5768 5767 5766 5766 5765 5764 5763 5762 5761
5805 5804 5803 5801 5800 5799 5797 5795 5794 5793 5792 5792 5791 5790 5788 5787 5786 5786 5785 5783 5783 5781 5780 5779 5778 5777 5776 5776 5775 5774 5773 5772 5770 5769 5767 5766 5765 5765 5764 5763 5762 5761 5760
5805 5804 5803 5802 5800 5798 5797 5795 5794 5793 5792 5791 5790 5789 5788 5787 5786 5785 5784 5783 5782 5781 5779 5778 5777 5777 5775 5775 5774 5774 5773 5771 5770 5768 5767 5766 5765 5764 5763 5763 5762 5761 5759
5805 5804 5803 5801 5799 5798 5796 5795 5794 5792 5792 5791 5790 5789 5788 5786 5785 5784 5783 5782 5781 5780 5779 5778 5777 5776 5775 5774 5773 5773 5772 5771 5769 5768 5767 5765 5765 5764 5763 5762 5761 5760 5759
5804 5803 5802 5800 5799 5797 5796 5795 5794 5792 5791 5790 5789 5788 5787 5786 5785 5784 5783 5782 5780 5779 5778 5776 5775 5774 5774 5773 5772 5772 5771 5770 5769 5767 5766 5765 5765 5764 5763 5762 5761 5759 5758
5805 5803 5801 5800 5799 5797 5795 5794 5793 5792 5791 5790 5789 5788 5787 5786 5784 5783 5782 5781 5780 5779 5777 5776 5775 5774 5773 5772 5771 5771 5770 5769 5768 5767 5766 5765 5765 5764 5763 5762 5760 5759 5758
5805 5803 5801 5799 5798 5796 5794 5793 5792 5791 5790 5789 5788 5787 5786 5785 5784 5783 5782 5780 5779 5777 5776 5775 5774 5773 5772 5771 5770 5770 5769 5768 5767 5766 5765 5765 5764 5764 5763 5762 5760 5759 5757
5804 5802 5801 5799 5797 5796 5794 5792 5791 5790 5789 5789 5788 5787 5786 5784 5783 5782 5781 5780 5778 5777 5775 5774 5773 5772 5771 5770 5769 5768 5768 5767 5766 5765 5764 5764 5763 5763 5762 5761 5760 5758 5757
5801 5801 5800 5798 5797 5795 5793 5792 5791 5790 5789 5788 5787 5786 5785 5784 5783 5782 5781 5779 5778 5777 5775 5773 5772 5771 5770 5769 5768 5767 5767 5766 5765 5764 5764 5763 5763 5763 5762 5761 5759 5758 5756
5797 5798 5799 5798 5796 5795 5794 5792 5790 5789 5788 5788 5787 5786 5785 5783 5782 5781 5780 5779 5777 5776 5775 5773 5771 5770 5769 5768 5767 5767 5766 5765 5764 5764 5763 5763 5762 5762 5761 5760 5758 5756 5756
5799 5799 5799 5798 5797 5795 5794 5792 5790 5789 5788 5787 5787 5786 5784 5783 5781 5780 5779 5778 5777 5776 5774 5773 5771 5770 5769 5767 5766 5765 5765 5764 5763 5763 5762 5762 5761 5760 5759 5758 5756 5755 5754
5800 5800 5800 5800 5798 5797 5795 5793 5791 5790 5788 5787 5787 5786 5784 5782 5781 5780 5779 5778 5777 5775 5773 5772 5770 5769 5768 5767 5766 5765 5764 5763 5762 5762 5761 5761 5760 5759 5758 5756 5755 5754 5752
5801 5801 5801 5801 5799 5797 5795 5794 5792 5791 5790 5788 5787 5786 5785 5783 5781 5780 5778 5777 5776 5774 5772 5771 5769 5768 5767 5766 5765 5765 5764 5763 5762 5761 5761 5760 5759 5758 5757 5756 5754 5753 5751
5802 5802 5802 5801 5800 5798 5796 5794 5792 5791 5790 5789 5788 5787 5786 5784 5782 5780 5778 5777 5775 5774 5772 5771 5769 5768 5766 5766 5765 5764 5763 5762 5761 5760 5760 5759 5758 5757 5756 5755 5754 5752 5750
5804 5804 5803 5802 5801 5799 5797 5795 5793 5792 5791 5789 5788 5788 5786 5785 5783 5781 5778 5777 5775 5773 5772 5770 5769 5767 5766 5765 5764 5763 5763 5762 5761 5760 5759 5758 5757 5756 5755 5753 5752 5750 5749
5806 5805 5804 5804 5801 5799 5797 5796 5794 5793 5791 5790 5789 5788 5786 5785 5783 5781 5778 5776 5775 5773 5771 5769 5768 5766 5765 5764 5762 5762 5762 5761 5760 5759 5758 5757 5756 5755 5754 5752 5751 5749 5748
5809 5806 5803 5803 5800 5798 5796 5795 5793 5792 5791 5790 5789 5787 5786 5784 5783 5781 5778 5776 5774 5772 5770 5769 5767 5765 5763 5762 5761 5761 5761 5760 5759 5758 5756 5756 5755 5754 5753 5752 5750 5749 5747
5810 5807 5804 5802 5800 5798 5795 5793 5791 5790 5789 5789 5788 5786 5785 5783 5782 5780 5777 5775 5773 5771 5768 5767 5765 5764 5762 5761 5761 5760 5759 5759 5759 5758 5758 5757 5755 5753 5752 5751 5750 5748 5747
5809 5805 5802 5799 5798 5796 5793 5789 5787 5785 5786 5786 5786 5785 5784 5782 5781 5779 5776 5773 5771 5769 5767 5766 5764 5761 5760 5759 5756 5753 5755 5757 5757 5757 5757 5756 5754 5752 5752 5751 5749 5748 5746
5808 5805 5802 5800 5798 5796 5794 5791 5789 5787 5785 5785 5784 5784 5783 5782 5780 5779 5775 5773 5771 5769 5766 5765 5763 5759 5758 5758 5753 5747 5744 5746 5752 5756 5756 5754 5753 5751 5750 5749 5748 5746 5744
5807 5805 5804 5800 5798 5797 5794 5791 5788 5785 5783 5781 5780 5780 5781 5780 5779 5777 5775 5773 5771 5769 5766 5764 5763 5759 5755 5755 5754 5748 5740 5736 5741 5748 5751 5751 5750 5749 5748 5747 5746 5744 5742
5808 5807 5804 5801 5798 5796 5794 5789 5785 5780 5776 5778 5778 5778 5779 5778 5777 5776 5774 5772 5770 5768 5766 5764 5763 5759 5755 5751 5751 5751 5748 5745 5738 5737 5742 5745 5746 5745 5745 5745 5744 5742 5741
5810 5807 5803 5800 5797 5795 5792 5789 5784 5780 5779 5778 5777 5776 5776 5776 5775 5774 5772 5771 5769 5767 5765 5763 5760 5758 5755 5751 5748 5747 5745 5744 5741 5735 5732 5736 5739 5742 5743 5743 5742 5741 5739
5809 5806 5802 5797 5794 5793 5790 5787 5783 5779 5777 5775 5773 5772 5771 5772 5772 5771 5770 5768 5766 5765 5762 5760 5758 5756 5754 5751 5749 5746 5743 5740 5737 5735 5731 5730 5732 5736 5739 5740 5739 5738 5737